Regional Weather Roundup
Issued by NWS

Home | Current Version | Previous Version | Graphics & Text | Print | Product List | Glossary On
Versions: 1 2 3 4 5 6 7 8 9 10 11 12 13 14 15 16 17 18 19 20 21 22 23 24 25 26 27 28 29 30 31 32 33 34 35 36 37 38 39 40 41 42 43 44 45 46 47 48 49 50
000
ASUS45 KBOU 300707
RWRCO

WEATHER ROUNDUP FOR COLORADO
NATIONAL WEATHER SERVICE DENVER/BOULDER CO
100 AM MDT SUN APR 30 2017

NOTE: "FAIR" INDICATES FEW OR NO CLOUDS BELOW 12000 FEET WITH NO
SIGNIFICANT WEATHER AND/OR OBSTRUCTIONS TO VISIBILITY.

COZ001>005-013-030-031-300800-
...NORTHWEST COLORADO...

CITY           SKY/WX    TMP DP  RH WIND       PRES   REMARKS
CRAIG          FAIR      25  19  78 SW6       30.18F WCI  18
HAYDEN         FAIR      27  18  69 W7        30.16S WCI  19
MEEKER         FAIR      29  21  72 NE6       30.18S WCI  23
MOUNT WERNER   NOT AVBL
STEAMBOAT SPGS FAIR      27  18  70 CALM      30.15S
WALDEN           N/A     18  10  73 NW3       30.16F
$$

COZ006>008-011-300800-
...WEST CENTRAL VALLEYS...

CITY           SKY/WX    TMP DP  RH WIND       PRES   REMARKS
GRAND JUNCTION FAIR      40  17  39 N8        30.17R
MONTROSE       CLOUDY    38  21  50 NW18      30.15R
EAGLE          CLOUDY    31  23  72 CALM      30.16F
RIFLE          FAIR      37  21  52 NW9       30.16S
DELTA          FAIR      45  19  35 NW14G20   30.14R
NUCLA          FAIR      36  18  48 W5        30.18R
$$

COZ017>023-064>068-300800-
...SOUTHWEST COLORADO...

CITY           SKY/WX    TMP DP  RH WIND       PRES   REMARKS
DURANGO        FAIR      27  24  89 N3        30.04R
CORTEZ         FAIR      38  21  50 N13       30.10S
PAGOSA SPRINGS FAIR      31  26  83 SW3       30.03S
TELLURIDE      LGT SNOW  28  19  68 CALM      30.12R
WOLF CREEK PAS FAIR      12  12 100 NW6       30.07S WCI   3
$$

COZ009-010-012-014-032>034-037-058>063-300800-
...CENTRAL COLORADO...

CITY           SKY/WX    TMP DP  RH WIND       PRES   REMARKS
ASPEN          CLOUDY    28  21  75 CALM      30.11S
BUENA VISTA    FAIR      27  17  67 N13G21    30.05S WCI  16
COPPER MTN     SNOW      16   9  73 MISG      30.07S VSB 1/2
BERTHOUD PASS  CLOUDY     7  -4  61 N8G21     30.06R WCI  -6
COTTONWOOD PAS FAIR      27  12  54 W10       30.04F WCI  17
GUNNISON       FAIR      26  20  77 CALM      30.09R
KREMMLING      FAIR      32  21  64 CALM      30.16S
LEADVILLE      FAIR      17  12  80 N17       30.07S WCI   1
MONARCH PASS     N/A     12  10  92 CALM      30.13F
SALIDA         FAIR      26  22  85 NW5       30.14S WCI  20
SUNLIGHT       CLOUDY    18  16  93 N5        30.17S FOG     WCI  11
WILKERSON PASS CLOUDY   N/A N/A N/A N15G25    30.04S
$$

COZ069>075-300800-
...SAN LUIS VALLEY/SANGRE DE CRISTO MOUNTAINS...

CITY           SKY/WX    TMP DP  RH WIND       PRES   REMARKS
ALAMOSA        CLOUDY    25  24  96 SE3       30.01S
LA VETA PASS   LGT SNOW  18  14  86 NW13G22   30.09F WCI   4
SAGUACHE       FAIR      32  18  55 N12       30.02S WCI  23
$$

COZ035-036-038>040-300800-
...NORTHERN COLORADO FRONT RANGE...

CITY           SKY/WX    TMP DP  RH WIND       PRES   REMARKS
DENVER INTL AP MOCLDY    30  22  72 NW13      30.10F WCI  20
DMNS CITY PARK   N/A     29  20  66 N1        30.12S
AURORA         MOCLDY    27  23  84 W8        30.11F WCI  19
FRONT RANGE AP MOCLDY    30  28  93 W10       30.12S WCI  21
ERIE MUNI ARPT FAIR      29  24  81 CALM      30.12F
BOULDER MUN AP FAIR      30  23  74 W6        30.13F WCI  24
CENTENNIAL     MOCLDY    27  21  78 W9        30.10F WCI  18
BROOMFIELD     FAIR      30  19  64 NW9       30.12F WCI  22
FORT COLLINS   FAIR      28  19  69 N7        30.13F WCI  21
LONGMONT       FAIR      30  23  74 NW5       30.15F WCI  25
$$

COZ041-046-047-076>085-087-088-300800-
...PIKES PEAK/PALMER DIVIDE AND SOUTHERN FOOTHILLS...

CITY           SKY/WX    TMP DP  RH WIND       PRES   REMARKS
COLO. SPRINGS  CLOUDY    30  17  58 NW24G32   30.07R WCI  16
A. F. ACADEMY  DRIZZLE   27  16  64 N18G28    30.05S WCI  14
SCHRIEVER AFB  MOCLDY    27  19  70 NW20G31   30.06R WCI  14
ELLICOTT       CLOUDY   N/A N/A N/A N25G35    30.01S
FALCON         CLOUDY    25  17  71 NW20G26   30.04S WCI  11
FORT CARSON    MOCLDY    31  19  60 NW18G29   30.06R WCI  19
LIMON          CLOUDY    29  24  82 NW24      30.01F WCI  15
MONUMENT HILL  CLOUDY    21  19  93 NW20      30.08F WCI   6
TRINIDAD       LGT SNOW  27  24  89 NW21      30.03F FOG     WCI  13
$$

COZ042>045-048>051-090-091-300800-
...NORTHEAST COLORADO...

CITY           SKY/WX    TMP DP  RH WIND       PRES   REMARKS
GREELEY ARPT   FAIR      31  24  75 NW12      30.13F WCI  22
AKRON          FAIR      33  25  72 N14       30.04F WCI  23
BURLINGTON     NOT AVBL
WRAY           NOT AVBL
STERLING       FAIR      36  30  80 N14       30.06F
HOLYOKE        FAIR      41  28  60 N14       30.03F
FORT MORGAN    FAIR      33  21  61 NW15      30.09F WCI  23
$$

COZ086-089-092>099-300800-
...SOUTHEAST COLORADO...

CITY           SKY/WX    TMP DP  RH WIND       PRES   REMARKS
PUEBLO         CLOUDY    35  24  64 N22       30.07F WCI  23
LA JUNTA       LGT SNOW  33  30  88 N29G35    30.02F VSB 3/4 WCI  19
LAMAR          LGT SNOW  35  29  78 N30G40    29.90F WCI  22
SPRINGFIELD      N/A     30  30 100 N38G46    29.88F WCI  13
$$



USA.gov is the U.S. government's official web portal to all federal, state and local government web resources and services.